GFSMW_sfc_rhum_291.txt.gz
RH
45 43 46 48 50 51 54 59 58 61 64 66 69 68 70 72 75 68 71 64 76 78 82 84 84 88 91 93 92 92 92 93 92 96 90 88 82 86 77 93 87 84 84
38 38 41 47 49 53 52 56 56 59 63 63 65 70 64 67 69 71 66 60 63 72 68 81 86 88 88 89 95 94 94 97 92 92 97 97 88 78 67 89 89 84 87
38 38 40 46 48 52 51 51 55 56 62 60 61 56 55 59 65 67 69 65 63 69 73 78 78 86 87 88 94 96 93 97 94 94 98 97 95 90 84 85 87 80 89
35 37 41 46 50 54 54 52 52 54 56 64 67 63 66 64 68 68 67 67 64 68 69 76 81 83 82 82 90 89 90 94 91 96 89 92 96 96 92 78 78 75 75
39 40 40 42 50 51 54 53 54 58 58 65 65 73 69 71 71 73 72 72 76 71 69 75 79 81 78 78 84 89 84 91 93 93 96 93 94 92 92 91 81 68 68
40 40 39 42 47 52 56 55 54 58 61 62 68 68 72 69 74 76 78 78 79 78 77 71 79 81 77 76 83 82 78 83 91 87 88 89 92 89 92 90 89 89 68
43 42 44 48 49 54 53 52 55 59 62 64 65 68 70 72 73 77 79 78 80 82 81 79 81 83 78 80 82 82 78 80 85 87 80 86 82 86 82 86 86 88 75
41 42 45 50 50 49 51 51 53 58 60 64 66 66 68 74 76 76 77 81 79 80 76 77 78 77 77 77 80 79 76 79 86 87 81 84 80 78 83 80 88 88 76
43 44 46 50 51 54 58 52 53 56 59 66 70 69 70 71 74 74 74 78 77 60 74 74 75 76 74 76 78 80 73 80 83 85 85 83 80 79 84 79 90 86 90
43 45 45 51 53 56 57 56 53 55 59 61 65 65 67 70 72 72 74 74 75 72 73 73 74 74 72 76 76 79 77 78 82 72 82 79 81 81 84 87 77 74 82
45 42 45 52 53 60 57 59 54 54 58 63 66 66 66 69 70 72 75 74 72 73 72 70 71 71 71 77 77 74 73 72 75 76 72 75 75 78 86 85 82 83 79
42 40 44 51 51 59 60 54 56 56 54 60 64 67 66 68 71 70 70 72 69 72 66 68 69 69 72 75 74 76 76 74 75 74 76 72 65 82 85 82 85 80 75
40 40 43 48 52 55 58 56 54 52 51 56 64 68 69 68 71 69 67 67 67 69 68 68 69 70 73 72 73 75 78 76 78 77 76 75 82 85 86 84 81 80 70
34 39 42 48 45 49 56 56 56 52 50 50 64 68 69 67 68 66 65 66 67 69 68 69 70 71 73 68 70 70 79 79 74 78 80 77 74 85 79 71 80 66 69
32 35 42 46 45 48 52 50 56 55 51 50 63 67 64 64 63 64 65 69 71 71 70 69 69 71 63 58 77 76 79 80 75 76 67 70 73 72 75 65 70 73 76
29 32 37 40 39 40 46 46 52 58 54 55 59 60 58 61 62 62 67 70 73 74 73 71 70 70 53 83 77 79 81 76 74 76 72 71 70 72 72 73 79 85 82
27 32 34 36 34 38 40 52 52 57 56 58 56 55 57 62 62 62 64 70 77 82 75 72 71 70 80 80 77 82 76 78 80 75 76 69 60 76 70 73 76 74 77
25 30 31 34 32 38 41 49 47 52 55 54 52 54 58 60 65 64 66 75 78 76 75 72 70 74 71 80 81 81 78 82 78 78 75 77 77 75 76 74 74 76 77
26 30 30 32 34 36 40 41 46 48 51 49 49 50 56 54 61 74 84 81 76 74 72 66 74 79 81 86 81 80 84 79 80 70 75 74 75 77 79 81 86 86 87
30 31 31 29 32 36 39 40 44 46 47 47 43 47 50 50 51 60 63 66 68 66 72 72 76 73 77 80 79 85 91 86 79 72 71 76 78 81 81 86 88 94 91
35 31 28 29 32 36 39 42 49 46 45 45 46 46 47 49 52 55 61 65 70 79 82 77 77 74 75 79 82 84 81 80 72 72 75 78 81 83 84 85 91 92 88
32 30 30 33 36 38 37 45 47 53 50 48 49 50 49 40 47 58 62 73 84 85 86 88 89 90 88 85 88 83 80 78 74 77 80 82 82 84 86 88 88 88 89
28 28 31 37 38 40 38 44 52 55 52 52 53 54 54 51 55 59 74 86 85 89 92 92 92 92 92 92 88 84 83 84 84 77 81 83 85 87 90 86 86 87 91
28 27 35 39 41 41 38 45 51 52 50 55 58 60 65 65 61 70 80 86 92 96 90 91 93 96 94 94 93 92 94 88 78 78 85 89 92 92 89 86 83 88 92
28 30 37 41 42 41 45 45 54 50 48 53 60 64 71 68 71 81 86 88 86 86 89 90 92 96 94 94 88 88 89 80 75 87 91 85 86 86 80 78 82 86 88
30 32 38 42 43 40 44 50 51 46 51 56 69 82 89 90 90 95 93 85 83 85 84 83 87 88 87 86 84 87 81 83 84 87 87 89 89 88 86 89 88 83 84

GFSMW_sfc_rhum_297.txt.gz
RH
53 52 51 56 56 55 56 58 60 64 68 73 77 72 82 74 75 72 77 80 83 83 88 84 85 91 90 91 89 95 94 85 87 97 94 97 62 79 88 74 61 74 59
59 56 57 54 55 57 57 59 63 68 67 71 76 75 74 74 75 75 75 79 79 82 75 85 84 90 86 86 91 93 97 96 89 95 98 98 87 67 73 77 59 89 69
59 56 55 57 56 57 58 61 67 67 68 67 62 66 70 75 70 78 78 80 80 80 81 83 85 86 84 88 92 95 96 92 95 88 96 96 97 90 90 84 72 72 77
53 53 56 59 55 58 57 61 64 67 66 69 70 72 75 80 90 90 87 80 82 83 80 81 86 90 87 86 84 86 96 93 93 94 84 94 93 96 96 79 74 66 72
49 52 59 58 58 58 64 62 68 68 69 74 76 76 83 86 90 90 86 84 85 84 83 83 86 88 88 90 88 90 93 93 93 96 98 94 96 93 98 98 80 71 72
48 50 55 59 64 69 69 71 70 71 72 73 76 77 79 83 87 89 89 89 87 87 85 81 86 87 86 81 83 88 88 93 94 94 95 96 97 97 96 98 88 87 74
50 54 59 64 69 69 70 71 70 74 76 77 78 80 82 84 85 87 88 85 85 88 87 85 85 88 84 81 79 82 86 90 93 92 91 92 92 95 95 97 89 86 75
49 53 56 59 60 60 68 70 73 73 73 76 78 80 80 85 87 85 87 87 87 86 84 83 84 85 80 79 77 80 84 85 91 89 90 91 89 92 95 97 96 85 83
49 52 54 60 61 63 69 71 71 71 71 75 80 81 82 81 84 85 84 87 83 72 80 80 82 83 79 79 80 84 86 86 88 88 89 90 90 93 94 93 94 98 89
49 50 52 58 58 59 69 75 71 72 74 76 80 80 83 83 82 82 81 81 80 77 77 78 81 83 79 78 80 84 84 85 88 83 87 89 90 90 93 92 92 95 93
48 50 52 56 58 61 67 73 72 75 78 77 80 84 84 82 82 81 80 79 79 76 76 76 80 82 79 79 81 80 82 84 87 88 89 90 90 84 94 90 87 91 87
46 49 53 60 63 61 67 69 74 74 76 76 79 82 82 80 80 79 77 77 77 76 75 75 79 83 79 80 81 82 84 86 86 87 90 90 72 86 93 92 89 88 67
50 50 54 60 61 60 63 67 71 71 76 76 80 84 83 79 79 79 77 76 76 75 76 76 79 82 79 78 80 83 84 86 87 88 90 86 85 89 94 87 86 82 73
49 51 53 56 60 60 60 64 69 70 74 77 79 82 83 79 78 77 76 76 76 76 75 76 79 80 78 75 77 79 85 86 83 86 88 86 86 88 86 83 88 82 86
48 52 54 56 60 62 61 59 63 70 72 76 79 82 81 79 77 77 78 79 79 78 77 74 80 78 74 68 81 82 86 87 87 88 80 81 78 72 78 83 88 90 85
45 48 50 53 57 58 60 57 61 67 70 75 78 79 79 77 78 78 77 79 79 81 78 78 80 79 66 79 77 82 89 86 87 89 83 82 77 80 80 81 84 86 85
42 44 49 50 53 55 55 59 60 64 67 73 75 76 76 75 78 75 74 79 80 82 80 82 83 82 81 79 78 85 89 89 91 89 89 82 69 84 85 82 78 78 76
41 40 44 47 50 52 54 56 56 58 63 70 71 73 76 75 79 75 74 81 83 81 83 85 88 84 77 81 84 87 87 89 87 88 89 90 88 83 85 81 78 75 73
39 40 40 45 49 52 53 55 56 55 58 64 66 67 73 76 78 82 84 81 85 83 85 83 84 85 85 82 87 84 87 86 88 86 86 82 82 81 83 86 84 80 80
40 40 42 44 47 51 52 54 56 57 57 60 60 63 68 72 76 77 78 81 82 82 87 81 80 80 85 84 86 84 91 92 91 89 84 80 83 84 87 92 91 85 89
43 40 44 46 46 50 52 55 58 58 54 59 60 62 66 70 72 76 78 80 89 88 86 85 88 84 88 87 85 83 92 95 97 96 85 82 84 86 86 77 82 84 81
42 43 46 47 47 50 50 53 57 56 59 61 61 62 67 58 64 73 78 84 90 88 90 90 85 86 86 86 84 85 84 87 96 93 90 88 85 86 74 82 83 80 87
38 40 44 48 49 50 47 53 53 59 63 63 62 64 65 64 70 75 86 92 91 90 92 92 90 90 89 92 84 86 87 88 96 95 90 86 86 86 89 80 76 84 89
35 39 43 48 52 50 45 47 54 59 61 61 63 66 65 71 75 78 88 90 95 96 93 93 92 97 93 92 92 94 95 94 94 93 93 90 92 89 87 84 82 84 86
36 39 42 46 48 48 45 48 59 58 57 58 61 62 66 67 79 83 88 89 89 90 92 92 92 96 97 95 89 91 94 95 86 82 85 95 82 80 86 88 82 84 83
38 39 40 42 45 46 45 54 56 54 55 60 65 71 79 83 84 89 94 91 86 90 88 87 88 91 88 86 81 80 81 78 79 81 81 94 94 88 85 91 90 86 85

GFSMW_sfc_rhum_300.txt.gz
RH
60 60 59 59 57 60 58 68 73 77 73 83 75 75 83 78 79 79 83 83 84 82 86 84 83 85 88 93 90 95 90 80 90 93 89 87 67 83 77 63 59 65 66
62 61 64 60 59 60 62 64 66 69 71 78 77 74 82 85 86 83 81 82 81 84 78 86 84 90 83 88 92 93 93 90 88 96 95 93 73 74 76 73 58 72 68
60 63 62 62 62 62 61 64 66 66 68 68 67 76 80 80 81 85 85 84 82 82 85 87 87 87 87 89 93 95 94 93 91 90 93 85 92 90 83 83 69 67 73
59 59 61 68 66 67 67 65 63 63 64 67 70 75 78 80 91 92 88 87 85 84 82 85 87 89 85 88 87 87 96 92 92 91 82 93 87 94 88 78 78 68 71
56 58 63 66 68 70 72 70 66 68 71 73 75 78 83 88 88 88 87 88 88 86 84 85 86 84 83 87 89 90 92 92 92 96 95 92 93 91 97 95 76 71 67
58 58 61 63 72 80 80 78 74 76 76 77 82 82 87 88 87 86 89 89 89 89 85 84 86 83 79 81 85 87 90 90 91 91 94 93 94 94 96 92 83 78 65
57 62 67 70 74 79 81 80 76 80 79 79 81 81 82 82 83 86 88 85 87 90 89 87 85 81 79 79 80 84 86 89 88 89 88 87 90 92 94 96 88 86 70
52 58 62 66 71 73 79 78 78 81 79 80 83 83 82 88 87 87 87 88 87 88 85 86 83 81 80 80 82 82 84 86 88 88 88 87 89 89 90 90 92 83 74
53 59 61 65 67 71 78 79 76 78 79 80 85 85 86 85 85 86 85 87 83 74 84 86 83 80 81 82 82 84 86 85 87 89 89 88 88 87 88 84 85 94 86
52 57 59 63 62 66 78 79 73 73 78 81 82 82 83 82 84 83 83 82 81 80 81 85 84 81 81 81 83 85 86 85 88 85 88 89 89 84 88 86 83 87 87
54 55 56 60 61 66 73 79 76 76 81 82 84 85 86 84 84 83 83 82 81 80 80 82 84 81 81 82 83 82 85 86 86 86 86 87 85 83 86 88 83 86 85
51 53 57 63 63 67 73 76 80 77 78 81 84 84 85 86 84 82 81 82 80 79 79 81 84 80 81 82 83 84 84 87 86 86 87 84 74 86 87 88 85 87 82
52 55 60 63 63 66 70 74 78 77 80 82 86 88 86 84 83 82 81 80 78 79 79 80 84 80 81 80 82 84 85 86 86 87 87 87 86 88 88 86 86 86 77
52 55 58 61 60 62 68 72 77 79 80 80 86 88 87 82 83 82 80 81 79 78 79 81 83 80 78 77 80 80 86 86 84 88 88 86 86 88 85 83 87 77 81
53 54 58 60 60 62 64 66 72 79 78 79 84 86 86 83 82 81 81 83 82 80 79 80 84 80 74 71 82 83 86 86 86 87 82 82 79 73 79 82 81 80 82
51 51 52 57 60 59 62 64 70 76 77 78 80 82 85 83 82 82 82 84 84 82 81 80 82 81 67 78 78 83 84 83 83 83 84 84 78 81 81 83 78 78 86
49 50 51 55 58 58 58 62 67 73 76 77 79 81 81 82 83 80 80 83 84 82 81 83 85 84 81 78 81 83 81 82 84 83 84 80 70 84 85 76 80 77 82
46 48 48 50 53 55 56 57 62 69 73 76 77 80 80 80 84 81 78 84 85 83 84 85 87 84 79 81 85 85 81 82 83 85 85 85 85 84 84 76 75 75 76
44 45 46 48 52 56 56 57 61 63 68 73 74 75 76 78 82 84 85 85 87 86 86 86 88 85 84 82 85 84 85 82 85 86 87 84 85 84 84 76 79 78 78
45 44 47 48 53 56 56 59 60 61 63 66 68 70 74 73 78 81 83 83 86 81 88 84 80 82 82 84 83 85 89 88 88 87 84 84 84 88 75 75 77 87 90
49 45 47 50 52 55 57 59 60 61 56 60 65 69 71 74 75 82 83 83 86 92 89 83 86 82 85 85 83 83 87 90 93 89 88 84 86 85 70 70 79 85 84
51 48 50 51 52 56 56 59 60 57 56 62 66 68 71 64 72 80 82 85 92 91 88 88 86 82 81 84 83 83 84 86 92 92 92 89 86 83 85 87 78 80 86
46 46 48 53 54 57 54 58 57 59 64 66 66 69 73 72 76 79 86 93 93 91 89 92 89 86 85 88 83 84 86 87 94 91 90 87 84 84 90 85 88 83 86
45 45 49 56 59 57 52 52 55 62 64 65 67 73 74 77 79 82 86 90 94 95 90 93 91 95 91 91 91 90 92 94 90 91 89 90 90 77 76 84 87 83 86
44 46 49 55 55 56 53 52 61 63 62 62 67 71 73 70 79 81 86 86 88 85 90 91 89 94 94 91 88 90 90 92 89 88 85 83 87 84 78 81 86 85 85
44 46 48 51 53 54 53 57 63 59 61 66 71 76 81 83 82 84 95 89 85 87 86 86 86 89 86 86 81 79 82 78 79 86 83 84 86 84 87 91 90 88 88

GFSMW_sfc_rhum_303.txt.gz
RH
55 53 56 54 52 66 81 80 73 72 61 55 55 55 59 57 55 55 64 62 58 56 54 47 52 49 50 57 57 52 58 58 64 68 62 57 52 54 39 32 30 36 39
52 52 53 52 52 65 72 72 68 64 58 54 53 54 56 58 54 55 60 58 58 52 52 54 52 56 48 57 59 59 48 51 59 55 57 45 46 32 50 38 33 46 34
51 51 50 52 51 59 70 67 66 66 60 62 60 61 56 53 51 50 50 56 56 52 54 56 56 56 51 53 56 57 59 46 50 58 55 36 33 40 34 42 38 47 40
46 46 45 50 49 52 61 62 61 63 60 58 58 55 50 54 61 54 52 53 58 55 47 53 55 58 52 57 53 54 57 49 49 47 53 59 54 51 36 32 42 39 40
46 46 44 43 44 52 55 60 60 57 62 60 59 59 61 62 60 59 59 62 62 57 48 50 53 54 49 59 61 59 59 56 55 59 57 61 56 62 63 45 38 33 35
45 44 45 47 48 50 55 58 58 57 61 64 63 61 64 64 61 61 60 58 58 57 54 52 53 53 52 55 55 59 62 60 60 56 62 63 63 60 60 54 48 48 39
46 46 47 46 50 54 58 57 55 58 61 63 62 60 60 58 59 58 56 58 56 59 62 57 56 50 55 56 56 59 63 62 61 62 56 57 59 60 58 56 52 50 41
47 45 44 47 49 55 56 55 54 59 60 63 64 62 59 52 54 56 56 58 56 58 65 60 59 59 56 56 56 53 54 61 61 67 66 58 57 53 55 60 65 53 44
46 45 45 50 51 54 58 59 55 55 58 60 63 63 63 62 58 62 60 58 60 58 65 60 60 60 60 59 56 55 58 58 61 63 63 55 53 55 57 58 56 68 66
45 45 46 52 49 52 59 62 57 55 58 61 61 60 61 62 63 63 61 60 61 61 65 63 61 60 60 59 56 54 59 58 57 54 58 58 56 54 56 60 56 56 62
46 47 46 49 49 52 56 62 59 58 60 60 62 64 62 64 63 62 61 60 64 61 61 62 60 59 60 60 58 56 59 59 59 60 60 62 60 59 58 60 56 58 59
44 45 48 50 52 54 56 60 62 61 62 60 62 64 64 63 62 61 61 63 60 61 59 61 59 59 60 61 60 59 59 59 60 61 61 62 54 64 62 59 63 62 66
45 46 49 51 53 53 56 55 59 58 59 59 62 66 65 62 60 61 62 61 60 60 60 60 61 60 63 61 61 60 60 59 61 62 63 63 64 64 62 63 63 70 71
47 47 49 48 49 51 55 57 57 56 58 60 60 65 65 62 60 60 61 61 58 59 58 60 60 63 60 58 56 56 58 59 60 67 67 64 66 65 66 61 69 73 78
47 48 48 48 49 52 54 54 55 58 59 60 60 65 65 61 61 63 61 62 61 57 56 61 62 62 58 50 57 57 58 58 59 63 60 64 72 72 76 69 76 76 78
46 46 46 46 49 51 52 54 55 59 59 60 62 61 64 61 63 62 63 65 64 62 61 60 61 63 48 79 80 67 55 55 55 57 60 60 63 72 78 77 74 79 78
44 45 45 46 47 48 52 53 53 56 59 59 59 61 62 62 63 59 59 62 65 65 63 63 62 64 62 79 79 79 54 54 58 57 59 54 51 70 68 71 75 75 79
42 43 43 44 44 43 45 47 47 54 57 55 56 59 62 61 63 60 59 62 64 64 62 64 65 64 60 79 82 83 57 55 58 61 61 63 63 69 76 71 67 65 63
41 42 40 42 43 44 45 45 48 49 52 53 54 55 60 60 62 71 87 65 65 65 64 62 67 65 61 80 82 73 56 55 56 56 60 64 63 82 74 68 71 69 70
40 40 39 40 44 46 46 48 48 50 51 52 52 52 56 56 57 58 63 62 61 59 59 61 64 71 58 80 81 72 56 57 56 54 58 80 76 86 83 72 70 76 96
44 39 41 43 46 47 49 50 52 53 49 50 50 52 54 56 54 58 59 59 59 60 65 60 60 60 60 64 80 82 59 60 58 55 60 59 86 84 81 83 72 85 84
42 43 46 46 47 49 50 49 51 52 48 50 53 55 56 52 51 60 59 58 61 64 64 61 59 56 54 78 78 82 82 78 58 62 62 62 83 81 84 77 86 89 84
40 40 44 48 49 51 49 50 50 49 52 54 55 56 56 55 54 58 61 64 63 64 63 62 65 63 58 61 81 80 84 83 65 58 72 85 81 76 78 78 83 86 76
39 38 43 48 53 52 48 47 47 51 54 55 54 56 60 59 58 55 61 67 76 76 68 67 68 69 68 70 70 66 67 84 67 74 67 78 84 81 77 72 72 72 75
40 42 44 48 49 51 49 45 48 54 52 52 55 57 58 60 63 62 70 66 63 65 67 66 63 73 77 76 78 75 63 66 66 73 66 66 68 71 71 70 69 72 72
42 43 44 45 46 48 47 47 52 51 53 55 58 65 72 69 69 73 78 90 84 85 82 80 67 64 77 86 85 81 78 78 80 65 68 77 78 77 75 75 74 73 77

GFSMW_sfc_rhum_309.txt.gz
RH
40 40 41 46 56 64 64 64 70 70 57 50 48 46 43 42 46 40 40 40 38 37 36 30 33 34 38 43 40 34 44 42 44 47 41 41 36 32 22 21 23 30 24
38 39 40 40 48 56 60 64 65 66 62 58 51 46 41 37 39 41 42 43 45 43 37 38 36 36 37 46 46 44 32 34 38 38 35 30 38 23 26 26 27 36 26
40 42 42 43 44 54 59 60 57 50 46 48 46 50 43 41 41 35 35 35 35 37 40 42 40 39 37 40 46 44 44 33 34 43 40 34 30 30 23 28 26 31 29
36 36 38 40 41 46 50 52 50 49 51 48 53 46 36 35 44 38 39 36 38 37 37 41 42 44 42 44 42 40 44 42 38 35 33 43 41 39 32 24 25 24 26
33 33 33 33 33 39 45 48 50 48 47 46 47 44 45 46 44 48 50 52 50 50 41 48 55 54 42 50 53 53 49 43 41 38 37 39 32 37 35 32 29 26 25
30 30 31 31 31 33 43 48 49 45 46 46 48 46 52 47 48 53 52 50 44 44 46 44 46 47 46 48 49 52 54 51 48 39 38 38 38 37 37 38 36 36 29
30 31 31 30 30 34 42 47 46 44 46 48 47 47 46 45 47 48 45 47 46 49 52 54 56 45 47 46 47 50 53 53 52 52 41 38 38 38 38 39 40 39 30
30 30 30 30 29 34 40 44 42 42 44 47 47 44 40 35 35 36 37 39 40 45 49 50 48 46 46 46 45 43 43 52 51 54 51 38 39 40 41 43 46 45 37
29 30 29 31 31 34 39 44 40 38 43 46 47 44 40 37 35 40 41 40 45 44 48 48 48 47 45 44 45 45 47 47 49 51 51 41 40 42 42 44 43 48 51
27 30 29 32 30 33 38 43 38 37 42 45 45 40 37 36 40 43 41 43 45 46 49 49 47 45 44 43 42 42 46 46 46 42 48 47 45 41 42 46 43 44 48
26 30 29 30 31 33 36 41 37 37 42 44 44 43 40 40 42 42 44 46 49 48 45 45 44 43 43 42 44 43 42 43 46 48 47 48 46 47 45 47 45 46 48
24 27 29 31 32 35 37 39 39 38 40 41 40 43 42 41 42 43 44 49 46 45 44 43 41 40 41 42 42 41 41 43 45 46 47 47 40 50 50 48 51 50 52
24 26 29 31 34 36 38 37 37 37 39 37 40 44 45 43 44 44 45 45 45 44 42 41 42 41 44 41 40 40 41 42 45 49 49 48 49 52 53 53 53 52 49
26 26 29 31 34 35 37 38 37 36 37 36 39 45 46 44 46 46 46 45 43 43 41 42 41 44 40 36 33 35 41 42 42 52 51 50 52 58 60 52 57 54 58
25 27 30 32 34 36 36 35 35 36 37 37 38 46 45 42 42 45 44 44 44 40 38 41 42 42 40 30 38 36 40 41 41 43 40 45 57 68 71 57 61 62 60
26 26 28 30 33 34 35 35 35 37 36 37 38 40 41 38 42 45 45 45 44 41 41 41 42 46 26 75 67 62 40 38 38 40 41 41 68 61 76 81 74 71 62
25 26 28 30 32 33 35 35 34 34 35 35 34 37 39 39 43 41 41 44 47 47 46 44 43 46 45 74 71 70 42 40 44 42 44 39 34 64 56 62 72 77 80
24 25 26 29 30 30 32 33 31 33 32 30 31 35 39 38 42 40 41 46 47 49 48 47 45 45 46 78 76 78 51 42 42 44 45 49 48 70 68 61 53 50 51
22 25 24 26 29 30 32 32 31 31 29 28 30 31 36 37 41 44 52 47 48 50 47 44 46 48 56 81 79 70 44 38 40 36 41 48 49 82 79 64 58 54 61
22 23 24 26 28 30 31 34 32 32 30 27 28 28 32 34 38 41 45 45 45 44 38 39 46 54 48 83 80 67 42 41 38 36 39 77 66 81 83 66 60 66 84
23 23 25 27 29 30 32 35 35 35 29 26 26 28 30 34 36 40 42 44 42 40 43 39 44 45 45 65 80 78 47 41 38 35 36 48 80 80 78 81 63 72 77
23 25 27 29 30 31 33 34 34 35 30 26 27 28 31 29 30 41 43 41 41 43 46 44 46 46 42 66 79 78 77 71 43 38 40 55 76 78 78 76 77 81 88
22 24 27 30 31 32 34 36 36 33 33 31 30 31 32 31 32 40 45 45 42 48 48 47 54 55 44 51 82 79 79 78 55 41 64 74 76 79 81 85 81 87 82
22 24 27 30 34 34 32 34 32 33 34 33 33 34 37 37 35 36 41 48 56 60 50 53 60 64 57 54 65 59 69 84 67 69 61 68 77 82 78 76 71 71 77
20 24 27 29 31 32 32 31 30 34 34 34 35 37 37 40 40 40 48 45 48 53 56 54 56 71 73 67 67 66 64 63 62 62 62 61 60 61 62 62 65 73 75
19 22 25 27 28 30 31 30 30 32 37 38 38 44 50 50 47 51 72 94 69 78 73 67 57 55 69 80 82 76 70 66 69 57 63 63 69 69 66 66 70 76 80

GFSMW_sfc_rhum_312.txt.gz
RH
57 58 61 67 72 75 76 67 73 73 63 60 58 57 59 59 56 53 57 60 61 60 64 59 62 62 66 70 66 61 62 62 61 68 72 69 55 43 46 47 49 46 41
56 56 58 61 71 70 69 70 71 69 68 68 68 60 56 57 53 52 53 56 59 60 51 63 59 60 62 72 72 69 65 63 63 68 71 75 63 54 45 47 45 51 46
49 48 49 57 61 66 69 69 70 67 69 66 60 55 53 56 56 53 50 53 54 55 60 62 65 64 63 67 70 70 69 67 67 62 69 68 67 61 56 52 48 54 56
41 42 44 49 55 61 64 66 63 58 60 61 61 63 54 54 60 57 57 54 60 58 56 63 66 66 65 69 66 63 65 68 61 66 56 62 61 67 64 50 50 43 46
41 44 46 46 46 57 63 64 60 56 58 61 62 62 61 60 59 60 64 64 64 62 59 66 67 70 71 71 73 74 70 66 66 65 67 62 65 59 66 64 54 49 50
40 40 42 43 43 46 59 62 59 56 57 58 62 64 64 61 64 68 68 66 66 65 65 62 68 68 69 71 74 73 75 76 71 71 65 65 65 64 68 69 64 62 55
38 38 38 38 41 49 58 60 56 55 57 61 60 62 62 62 66 66 66 68 70 72 71 70 68 68 69 69 70 74 76 76 75 76 72 64 65 65 65 67 70 68 58
38 36 36 38 39 49 56 56 53 54 56 59 61 59 57 54 56 59 58 61 65 69 72 70 69 67 67 68 70 73 73 75 78 75 74 67 67 66 67 70 75 74 67
36 36 36 39 39 44 56 58 52 51 54 58 61 61 59 56 53 61 64 64 67 59 69 70 68 67 66 67 70 74 72 70 73 75 73 70 68 71 70 70 70 75 82
32 35 35 39 37 42 54 59 53 50 54 58 58 53 57 57 61 63 64 65 68 68 70 69 68 66 65 65 68 70 67 70 74 68 69 69 69 69 71 72 70 71 77
33 35 35 36 37 41 48 56 52 50 56 58 57 58 55 59 62 64 64 67 71 68 65 65 64 63 63 63 65 64 61 64 68 68 66 66 66 74 73 75 74 74 75
31 33 36 38 38 42 47 51 53 51 55 55 54 58 59 57 61 62 65 69 67 66 62 61 58 57 59 62 62 61 59 62 64 66 66 66 53 74 75 77 76 77 74
29 33 35 38 39 42 47 47 48 49 51 50 54 59 59 58 62 63 64 64 64 64 59 58 59 58 61 60 59 58 58 60 65 68 67 68 70 76 80 76 78 76 67
28 32 35 37 38 41 45 46 45 48 48 48 51 58 59 58 61 60 62 64 62 62 62 61 59 62 55 48 46 51 58 57 62 66 62 69 68 74 78 69 78 71 81
27 31 34 37 38 42 44 43 43 47 48 47 50 59 59 57 59 62 61 62 64 59 57 60 61 59 51 38 54 53 56 54 55 57 52 71 67 70 76 71 81 80 83
25 29 32 34 38 40 42 42 42 46 46 47 51 53 54 53 59 61 62 65 65 62 62 59 61 63 35 78 66 65 59 50 54 57 60 63 76 74 79 79 82 84 83
25 28 31 34 37 39 41 44 42 43 44 47 46 50 50 50 57 56 56 60 68 68 67 65 62 66 65 75 65 67 64 56 60 60 63 51 57 76 70 70 73 75 85
24 27 29 33 36 37 39 41 38 41 43 43 42 46 48 49 54 55 56 65 68 70 70 69 65 67 59 79 71 72 64 63 57 59 57 65 72 80 76 73 72 68 72
25 28 29 32 36 37 39 38 38 39 39 40 39 41 45 47 52 58 65 65 66 69 69 63 67 71 72 83 78 73 61 57 54 48 54 60 69 78 76 75 76 76 82
26 27 29 32 35 37 38 40 38 39 39 36 34 38 42 44 50 55 61 63 64 63 56 57 67 68 75 84 81 75 61 58 58 50 70 81 75 78 81 80 82 89 91
27 27 29 32 35 36 39 41 41 41 36 32 32 36 40 43 48 55 58 60 60 58 64 59 67 66 79 79 82 80 62 66 58 53 67 73 78 80 78 80 80 84 82
25 28 31 34 36 37 39 40 41 41 35 32 33 36 41 37 41 55 58 58 60 65 67 66 72 72 70 78 84 79 80 77 62 60 76 78 72 76 78 83 81 80 90
23 26 30 35 37 38 39 42 42 38 37 35 36 38 40 40 44 53 59 61 59 69 66 66 81 83 72 80 82 80 76 75 71 66 73 70 73 74 84 86 86 91 95
22 24 30 35 39 38 37 40 38 38 38 37 38 40 44 44 48 46 55 61 69 74 67 71 86 87 86 90 88 82 88 88 83 74 78 79 86 87 88 92 89 83 84
24 26 31 34 37 37 37 38 37 39 39 37 37 41 43 45 49 50 59 57 62 66 71 72 80 87 88 90 84 82 85 90 79 78 76 91 91 86 84 84 85 86 82
25 27 31 33 35 36 36 37 37 38 41 41 40 47 53 52 52 61 86 90 70 76 72 72 74 74 78 82 84 82 78 75 75 70 90 95 93 93 93 93 94 93 88

GFSMW_sfc_rhum_318.txt.gz
RH
92 96 94 94 93 89 84 83 80 80 65 65 72 73 68 64 66 64 63 65 64 64 65 69 67 70 72 70 63 62 60 68 72 79 76 68 57 58 61 60 56 53 56
95 96 96 94 93 90 81 79 75 76 76 77 74 69 61 65 64 62 63 64 64 64 64 70 70 69 67 72 70 66 68 70 73 78 80 66 62 55 57 60 56 61 57
91 91 98 94 94 94 89 80 78 76 74 70 65 66 57 61 59 60 66 68 67 68 70 72 75 75 72 73 76 70 67 70 69 71 76 76 71 66 64 61 60 63 66
76 82 95 97 86 94 91 84 78 80 69 65 63 58 57 58 64 68 66 65 64 67 68 72 77 79 80 76 73 73 73 68 65 68 57 66 68 68 70 58 62 60 61
70 71 84 93 93 89 86 86 82 81 72 67 63 67 74 72 75 74 72 71 75 75 74 76 80 83 81 82 80 79 78 80 74 73 73 72 72 72 64 64 64 63 69
69 74 77 85 92 86 88 86 84 82 73 70 72 73 72 73 77 75 76 77 78 79 77 76 82 83 83 81 83 82 78 78 76 73 72 74 75 76 76 76 78 78 70
69 76 81 90 89 89 88 84 79 79 74 76 74 72 71 70 72 75 82 85 84 83 80 77 80 82 82 82 82 80 78 81 82 78 81 80 78 76 78 80 85 80 76
68 74 73 79 84 85 85 79 75 73 73 77 74 70 72 70 77 77 83 83 82 84 81 82 82 82 81 82 84 88 86 84 85 79 81 86 83 80 78 79 82 85 86
66 67 66 70 78 84 84 77 71 69 73 73 72 71 76 76 77 77 81 84 84 76 81 80 81 81 80 80 80 84 84 84 84 83 83 86 87 87 86 88 86 85 93
61 59 60 65 75 79 80 74 69 70 74 70 68 68 76 76 78 80 82 83 82 81 79 78 79 78 78 79 81 84 81 83 86 82 84 84 88 87 89 91 89 89 88
57 57 58 60 71 78 76 75 71 72 75 68 70 74 75 74 78 80 83 81 84 81 79 77 78 78 77 75 80 80 77 81 82 83 82 84 83 88 90 91 89 91 90
55 56 57 59 72 80 75 75 72 72 70 68 67 70 74 76 79 80 80 84 82 80 79 76 75 74 73 74 74 73 76 79 81 82 80 76 66 87 89 90 89 90 91
54 54 55 58 73 76 74 73 72 71 69 65 67 73 77 77 79 79 80 78 82 81 78 76 75 74 74 73 74 75 77 79 81 79 76 77 80 85 87 88 88 90 80
51 50 53 60 66 70 72 72 71 70 67 64 65 71 77 75 78 79 77 80 80 80 78 76 74 74 71 69 67 71 78 78 77 81 78 77 81 82 83 82 89 86 92
49 50 53 58 64 69 69 68 70 70 65 64 64 72 75 77 78 78 79 82 80 76 75 77 75 73 66 60 69 69 76 77 77 79 77 80 80 74 78 84 88 90 94
49 48 48 50 62 66 66 66 70 70 65 64 66 70 72 75 77 77 81 82 82 80 80 78 75 73 51 79 77 71 69 67 72 81 83 84 81 76 74 82 89 91 91
47 47 47 49 54 61 61 67 68 67 66 65 66 66 68 72 78 74 78 80 83 85 84 80 77 71 70 83 82 81 72 71 74 79 85 74 67 76 73 84 83 84 81
46 45 45 46 49 54 56 61 64 65 66 64 64 64 68 72 76 74 77 86 87 84 85 83 80 71 63 79 77 80 79 77 73 75 84 82 81 78 75 91 86 83 82
44 44 42 44 49 54 53 59 63 62 63 64 63 62 65 70 74 76 85 82 86 88 85 77 82 72 64 78 75 69 75 77 75 70 81 81 83 78 74 89 84 83 83
41 44 43 44 50 52 52 58 61 61 62 63 61 60 62 66 70 74 84 88 86 82 75 81 83 76 70 82 78 61 75 78 82 84 88 82 81 78 83 86 84 88 87
43 43 44 47 49 51 52 58 60 60 57 59 59 60 60 64 67 77 80 78 83 81 85 80 91 79 76 78 81 76 76 79 85 82 86 87 79 79 83 80 82 84 87
44 45 46 49 50 52 52 56 58 57 55 58 60 62 60 58 66 75 76 77 79 84 87 89 94 90 84 78 84 80 78 81 78 86 88 85 80 80 80 86 82 87 93
43 43 46 51 52 52 50 55 56 55 56 58 61 62 60 59 67 72 80 80 79 80 83 83 90 95 94 91 84 84 84 82 82 90 86 82 81 81 84 83 86 90 95
41 43 49 53 56 52 49 52 54 54 55 57 59 61 63 63 68 65 72 77 82 84 80 85 92 94 97 95 95 92 90 90 88 88 89 88 88 89 93 93 94 92 89
43 47 49 52 53 52 51 52 53 53 54 54 56 61 61 63 69 68 74 73 73 74 78 80 84 91 93 90 86 83 83 87 84 86 87 91 92 91 94 95 94 93 92
51 47 49 50 52 51 52 52 52 51 53 54 56 64 68 68 70 75 91 89 81 82 81 82 82 81 80 87 86 82 80 82 88 88 93 96 96 96 96 96 96 97 94